Overview Statistics Trail Chart Weather Telemetry Raw packets
 

This is the latest recevied weather packets stored in our database for station/object K7DC. If no packets are shown the sender has not sent any weather packets the latest 10 day(s).

<< 12 13 14 15 16 17 18 >>
Time Temp. Humidity Pressure Rain* Wind** Luminosity Snow
1788552845 38.33° C 28% 1015.1 hPa 0 mm - 909 W/m² -
1788552541 38.33° C 28% 1015.1 hPa 0 mm - 930 W/m² -
1788552239 37.22° C 28% 1015.3 hPa 0 mm - 928 W/m² -
1788551934 36.67° C 30% 1015.6 hPa 0 mm - 909 W/m² -
1788551632 36.67° C 30% 1015.6 hPa 0 mm - 934 W/m² -
1788551327 36.67° C 31% 1015.6 hPa 0 mm - 918 W/m² -
1788551026 36.67° C 31% 1015.6 hPa 0 mm - 902 W/m² -
1788550722 37.22° C 30% 1015.6 hPa 0 mm - 908 W/m² -
1788550417 36.11° C 31% 1015.7 hPa 0 mm - 901 W/m² -
1788550112 36.67° C 31% 1015.6 hPa 0 mm - 901 W/m² -
1788549807 36.67° C 31% 1015.9 hPa 0 mm - 894 W/m² -
1788549504 36.67° C 31% 1016 hPa 0 mm - 939 W/m² -
1788549200 35.56° C 33% 1016.3 hPa 0 mm - 904 W/m² -
1788548897 35° C 35% 1016.3 hPa 0 mm - 830 W/m² -
1788548592 36.11° C 34% 1016.3 hPa 0 mm - 122 W/m² -
1788548288 36.67° C 33% 1016.3 hPa 0 mm - 222 W/m² -
1788547983 35.56° C 29% 1016.5 hPa 0 mm - 907 W/m² -
1788547683 35° C 34% 1016.4 hPa 0 mm - 637 W/m² -
1788547378 35° C 35% 1016.5 hPa 0 mm - 938 W/m² -
1788547074 35° C 35% 1016.5 hPa 0 mm - 881 W/m² -
1788546774 33.89° C 40% 1016.5 hPa 0 mm - 873 W/m² -
1788546469 33.89° C 39% 1016.8 hPa 0 mm - 857 W/m² -
1788546164 33.33° C 40% 1016.8 hPa 0 mm - 852 W/m² -
1788545860 32.78° C 41% 1016.8 hPa 0 mm - 843 W/m² -
1788545559 33.33° C 41% 1016.8 hPa 0 mm - 832 W/m² -

* Rain latest hour (hover to see other rain measurements)
** Current wind speed in m/s (hover to see current wind gust speed)